GFSNGP_850_temp_063.txt.gz
Temp
16 18 19 18 18 19 18 18 16 16 16 17 18 19 20 22 23 21 21 21 20 20 19 18 18 17 17 16 15 13 16 16 14 13 11 11 10 9 9 9 8 8 8 7
15 17 18 18 19 17 18 19 17 16 16 19 20 21 21 21 22 22 22 21 20 19 18 18 18 16 15 15 15 15 15 14 13 11 10 10 9 9 8 8 7 7 6 5
14 16 17 14 16 18 18 19 18 16 18 18 19 19 20 21 22 21 22 21 20 19 18 18 18 17 15 14 12 12 12 11 10 10 10 9 9 8 7 6 6 5 5 4
9 12 13 16 18 19 18 19 19 20 20 19 20 22 22 23 22 21 21 21 20 18 17 17 17 16 15 13 11 10 9 9 9 9 8 7 6 5 5 5 5 4 3 1
11 12 15 16 18 18 18 17 19 19 19 19 21 20 19 21 21 21 21 20 19 18 17 16 16 15 14 12 11 9 8 8 7 7 7 6 5 4 4 4 3 2 1 -0
8 10 12 14 16 18 18 15 18 19 18 18 18 14 14 19 20 20 19 18 18 16 15 13 12 12 11 10 9 8 8 7 6 5 5 3 2 2 2 2 1 0 -0 -0
8 8 9 15 17 19 15 14 19 19 20 19 16 16 20 19 19 19 18 16 15 14 13 11 10 10 10 9 7 7 7 6 4 4 3 2 2 2 1 1 0 -0 -0 -1
7 8 9 15 16 16 15 18 18 20 20 19 20 20 19 18 18 17 16 15 14 12 11 10 9 9 8 7 6 6 5 4 4 3 2 2 2 1 1 0 0 0 -0 -1
9 9 12 15 15 17 14 15 17 18 19 19 17 17 18 17 17 16 15 13 12 11 10 9 8 8 7 6 5 4 4 4 3 2 2 1 1 1 0 0 0 0 -1 -2
11 12 12 15 16 16 14 12 15 17 18 18 17 17 16 16 15 14 13 11 10 9 9 8 7 7 6 5 4 4 3 2 1 1 1 1 0 -0 0 -0 -1 -1 -2 -2
10 12 14 15 16 15 15 14 16 17 17 18 18 18 16 15 14 13 12 10 10 9 8 7 7 6 6 5 4 3 2 1 1 1 -0 -0 -1 -1 -1 -1 -2 -2 -2 -3
8 10 13 14 16 15 15 15 16 16 16 17 17 16 16 15 13 12 11 10 9 8 8 7 6 5 4 3 3 2 1 0 -0 -0 -1 -1 -1 -2 -3 -3 -4 -3 -3 -3
12 15 15 16 16 16 16 16 15 15 15 16 16 16 16 14 13 11 10 9 9 7 7 6 5 4 3 2 2 1 0 -1 -1 -2 -2 -3 -3 -3 -3 -4 -5 -5 -5 -5
13 13 14 15 15 14 14 14 14 14 13 14 15 15 15 13 11 10 9 9 8 6 5 4 3 2 1 1 0 -0 -1 -2 -2 -3 -4 -4 -4 -4 -4 -5 -5 -5 -6 -7
9 10 11 13 14 13 12 12 12 11 12 12 13 14 13 11 10 9 8 7 6 5 3 2 1 -0 -1 -1 -1 -2 -2 -3 -4 -4 -4 -4 -5 -5 -5 -6 -6 -7 -8 -10
6 8 9 9 10 10 10 10 9 9 9 10 11 11 10 9 8 6 5 4 4 2 -0 -0 -1 -3 -3 -3 -3 -3 -4 -5 -5 -5 -4 -5 -6 -7 -6 -6 -8 -9 -10 -11
4 4 6 6 7 7 7 8 8 7 8 9 8 8 8 7 5 2 0 -0 -1 -3 -4 -3 -5 -7 -6 -6 -6 -5 -7 -7 -5 -7 -7 -7 -8 -8 -7 -8 -9 -10 -11 -12
1 3 4 4 5 6 6 6 6 6 6 6 6 5 5 4 1 -2 -3 -4 -4 -6 -6 -7 -7 -6 -7 -7 -6 -6 -7 -7 -7 -8 -9 -9 -10 -9 -9 -9 -11 -12 -12 -13
-0 1 2 3 2 3 3 3 3 3 2 3 3 1 -1 -2 -4 -5 -6 -5 -5 -5 -7 -7 -7 -7 -7 -7 -7 -7 -8 -9 -9 -10 -10 -11 -10 -10 -11 -12 -12 -13 -14 -14
-4 -3 -3 -2 -1 -1 -1 -2 -1 -1 -2 -2 -1 -3 -5 -6 -6 -6 -6 -6 -7 -7 -8 -8 -8 -8 -8 -8 -9 -9 -10 -11 -11 -12 -12 -13 -12 -13 -13 -14 -14 -15 -15 -16
-6 -5 -5 -5 -5 -5 -5 -5 -5 -6 -6 -5 -5 -6 -6 -7 -7 -7 -7 -7 -9 -9 -9 -9 -9 -9 -9 -9 -10 -11 -12 -12 -13 -14 -14 -14 -15 -15 -16 -16 -16 -17 -17 -17
-7 -7 -7 -7 -7 -7 -7 -6 -6 -6 -7 -7 -7 -7 -7 -8 -8 -8 -8 -8 -10 -10 -10 -10 -10 -11 -11 -12 -13 -13 -14 -14 -15 -15 -16 -16 -16 -17 -17 -17 -18 -18 -18 -19
-8 -8 -8 -8 -8 -9 -8 -8 -8 -7 -8 -8 -8 -8 -8 -9 -9 -9 -10 -11 -11 -11 -11 -12 -12 -13 -14 -14 -14 -15 -16 -16 -16 -17 -17 -18 -18 -18 -18 -19 -19 -19 -20 -20
-8 -8 -8 -8 -8 -8 -9 -9 -9 -9 -9 -10 -10 -10 -9 -9 -11 -11 -12 -12 -13 -13 -13 -14 -14 -15 -15 -16 -16 -17 -17 -18 -18 -18 -19 -19 -19 -19 -19 -20 -20 -21 -21 -21
-9 -9 -9 -9 -10 -10 -10 -10 -10 -10 -10 -11 -11 -11 -11 -12 -11 -13 -13 -14 -14 -15 -15 -15 -16 -16 -17 -17 -18 -18 -19 -19 -20 -20 -20 -20 -21 -21 -21 -21 -22 -22 -22 -22
-10 -10 -10 -10 -10 -10 -11 -11 -12 -12 -12 -12 -13 -13 -13 -14 -14 -14 -15 -15 -16 -16 -17 -17 -18 -18 -18 -19 -19 -19 -20 -20 -21 -21 -21 -22 -22 -22 -23 -23 -23 -23 -23 -23
-11 -11 -11 -11 -12 -11 -12 -12 -12 -13 -13 -13 -14 -15 -15 -15 -16 -16 -16 -17 -17 -17 -18 -18 -19 -19 -20 -20 -21 -21 -21 -21 -22 -22 -23 -23 -23 -23 -24 -24 -24 -24 -24 -24

GFSNGP_850_temp_066.txt.gz
Temp
16 17 17 17 17 17 16 15 13 15 14 16 16 17 17 22 21 20 21 21 21 20 19 19 19 18 16 15 15 14 14 15 14 13 11 11 11 10 10 10 9 9 8 8
14 15 17 17 17 16 16 16 16 16 16 17 19 19 17 20 20 20 21 21 21 20 20 19 19 18 17 16 15 14 15 14 14 12 10 10 10 10 10 9 8 8 8 7
11 14 16 13 15 16 16 16 16 14 15 18 18 17 17 19 20 21 21 21 20 20 20 20 20 20 18 17 15 14 13 13 11 10 10 10 9 8 8 8 8 7 6 6
7 10 11 15 16 16 16 17 18 17 16 17 18 19 20 20 21 22 23 21 21 20 20 19 19 18 16 16 15 13 11 10 10 9 9 8 8 8 7 7 6 6 5 4
8 10 13 14 16 16 16 15 16 17 17 17 19 19 19 20 22 22 22 22 21 21 20 19 18 16 14 13 13 12 11 10 9 8 8 8 7 7 6 5 5 4 4 4
6 8 11 13 15 18 18 13 17 18 17 17 16 13 13 21 22 21 21 20 20 20 19 18 16 15 13 12 11 10 10 10 9 8 8 7 6 6 5 4 4 3 2 1
7 8 8 11 13 17 14 14 16 17 18 18 14 16 22 20 20 21 21 20 20 19 18 17 16 14 12 11 10 9 9 8 8 7 6 6 5 5 4 3 2 1 1 -0
6 7 8 13 14 14 12 15 17 16 16 16 19 19 19 19 20 20 19 19 18 18 16 15 14 13 12 10 10 8 7 7 6 5 4 3 3 3 2 2 1 0 -0 -1
8 8 11 13 13 13 13 13 13 15 15 16 16 19 19 18 18 18 19 18 17 17 15 13 12 11 11 10 9 7 6 5 5 4 3 2 2 2 1 1 1 0 -0 -1
9 11 11 13 14 16 14 15 15 14 15 15 15 17 16 18 17 17 16 16 15 14 13 12 10 10 9 9 8 6 5 4 3 3 2 2 1 1 1 0 -0 -0 -1 -1
9 11 13 13 14 15 15 15 15 14 15 14 16 16 16 17 16 16 15 14 13 12 11 10 9 8 7 7 6 5 4 3 2 2 1 1 0 -0 -0 -0 -1 -1 -2 -3
8 11 11 12 14 16 15 15 15 14 14 14 14 16 17 16 15 14 13 12 11 11 10 9 8 7 6 6 5 5 3 2 1 1 0 0 -0 -1 -2 -2 -2 -3 -4 -4
8 10 13 15 15 15 15 15 14 13 13 13 14 15 15 15 13 13 12 11 10 9 8 7 7 6 5 5 4 4 3 1 1 0 -0 -1 -1 -2 -2 -3 -4 -4 -5 -6
6 9 10 12 12 13 13 12 12 12 13 14 14 14 14 13 12 11 10 10 9 8 7 6 5 5 3 3 3 2 1 0 -0 -1 -2 -3 -3 -3 -4 -5 -5 -5 -6 -7
5 6 6 9 9 10 11 11 12 12 12 12 12 12 12 12 10 9 9 8 7 6 5 4 3 2 1 1 1 0 -0 -2 -3 -4 -5 -5 -5 -5 -6 -4 -7 -8 -9 -9
3 5 6 6 7 8 8 8 9 9 9 9 10 9 8 9 7 5 3 3 7 4 1 1 1 -1 -1 -1 -2 -4 -5 -5 -5 -6 -7 -6 -7 -7 -8 -8 -8 -9 -10 -11
1 1 2 4 4 5 5 5 6 7 7 7 6 4 4 4 3 2 0 -0 0 -2 -3 -3 -4 -6 -6 -6 -5 -5 -5 -6 -7 -7 -6 -8 -8 -8 -9 -10 -10 -11 -11 -11
-1 -1 -0 1 2 2 2 3 4 4 4 3 3 2 1 1 -1 -3 -4 -4 -5 -6 -6 -6 -5 -5 -5 -6 -6 -7 -7 -7 -8 -8 -8 -9 -9 -10 -10 -11 -12 -12 -13 -13
-2 -2 -2 -1 -1 -1 -1 -0 -1 -1 -2 -1 -1 -2 -3 -5 -6 -7 -7 -5 -5 -6 -8 -7 -7 -7 -7 -8 -7 -8 -8 -8 -9 -9 -10 -11 -11 -12 -12 -13 -13 -14 -14 -14
-6 -5 -5 -5 -5 -4 -5 -5 -5 -5 -5 -5 -5 -6 -7 -7 -7 -6 -6 -7 -8 -9 -9 -9 -8 -8 -8 -9 -9 -9 -10 -10 -11 -11 -12 -13 -13 -14 -14 -15 -15 -15 -16 -16
-7 -7 -7 -7 -7 -7 -7 -6 -6 -6 -6 -6 -6 -7 -7 -8 -7 -7 -7 -9 -11 -10 -9 -9 -9 -9 -10 -10 -10 -11 -11 -12 -13 -14 -14 -15 -15 -16 -16 -16 -17 -17 -17 -17
-8 -8 -9 -8 -8 -8 -8 -7 -7 -7 -7 -8 -8 -8 -8 -9 -9 -9 -10 -10 -12 -11 -11 -11 -11 -11 -12 -12 -12 -13 -14 -14 -15 -15 -16 -16 -17 -17 -17 -18 -18 -18 -19 -19
-9 -9 -9 -9 -9 -9 -8 -8 -8 -8 -8 -8 -9 -9 -9 -10 -11 -11 -11 -13 -12 -12 -12 -12 -13 -13 -14 -14 -14 -15 -15 -16 -16 -17 -17 -18 -18 -19 -19 -19 -20 -20 -20 -21
-9 -9 -10 -9 -9 -9 -9 -10 -10 -10 -10 -10 -10 -11 -11 -11 -12 -13 -13 -13 -13 -13 -13 -14 -15 -15 -15 -16 -16 -17 -17 -18 -18 -19 -19 -20 -20 -20 -21 -21 -21 -21 -22 -22
-10 -10 -10 -10 -11 -11 -11 -11 -11 -11 -11 -12 -12 -12 -12 -13 -12 -14 -14 -14 -15 -15 -15 -16 -16 -17 -17 -18 -18 -18 -19 -20 -20 -20 -21 -21 -21 -22 -22 -22 -23 -23 -23 -23
-10 -10 -11 -11 -11 -11 -11 -11 -12 -12 -12 -13 -14 -14 -14 -15 -15 -15 -15 -16 -16 -17 -17 -18 -18 -19 -19 -19 -20 -20 -20 -21 -21 -21 -22 -22 -22 -23 -23 -23 -23 -24 -24 -24
-11 -12 -12 -12 -12 -12 -12 -13 -13 -14 -14 -14 -14 -15 -15 -16 -16 -17 -17 -17 -18 -18 -19 -19 -19 -20 -20 -20 -20 -21 -21 -21 -21 -22 -22 -22 -22 -23 -23 -23 -23 -23 -23 -23

GFSNGP_850_temp_072.txt.gz
Temp
9 10 11 11 12 13 13 14 13 14 14 14 14 15 16 20 21 18 20 19 21 21 21 21 20 18 18 17 16 15 14 13 14 15 14 13 13 12 11 10 10 10 11 10
8 10 10 10 11 12 13 13 13 13 14 14 15 16 15 17 19 19 19 21 21 21 21 21 20 20 19 19 18 17 15 15 14 13 13 13 13 12 12 12 11 10 11 10
8 9 10 9 11 12 12 13 14 13 13 15 14 14 14 18 19 19 21 20 21 21 21 21 21 21 20 19 18 18 17 16 14 13 13 12 12 12 11 11 10 9 9 9
6 7 8 10 11 13 11 12 13 13 14 15 15 17 18 19 18 19 20 20 21 21 21 21 21 20 20 19 18 18 17 15 15 14 13 12 11 11 10 9 9 9 9 8
4 7 9 11 12 13 11 11 13 12 13 14 17 16 16 19 19 20 20 20 20 20 22 22 21 19 19 18 18 17 17 16 15 15 14 13 11 10 10 9 9 8 8 8
5 6 6 10 12 12 13 10 12 11 11 12 14 12 12 19 18 20 20 20 20 20 19 21 21 19 18 17 17 17 17 16 15 14 12 9 9 9 9 8 8 8 8 7
6 6 7 8 9 11 9 9 7 10 11 10 11 13 16 17 19 19 20 21 20 19 19 18 19 18 17 17 16 16 15 13 11 10 10 9 9 9 8 8 8 7 6 5
6 6 6 9 9 10 9 10 10 12 11 12 12 13 13 14 15 19 19 19 20 17 15 17 17 16 16 15 15 14 10 10 10 9 9 9 9 8 8 6 6 5 4 4
5 6 8 10 11 12 12 13 13 13 14 10 13 13 14 13 13 14 14 14 17 18 14 14 14 15 15 14 13 11 10 9 10 9 9 8 7 7 6 5 5 4 4 3
6 9 8 10 10 10 11 12 13 13 12 12 12 14 14 13 13 13 13 14 15 13 13 16 12 12 12 12 11 10 9 9 8 8 7 7 6 5 5 4 4 3 3 1
7 8 8 10 10 9 9 10 11 12 12 12 13 14 14 13 13 14 13 12 12 12 12 13 12 12 10 9 9 9 8 7 7 6 5 4 3 3 3 2 2 2 2 1
4 3 3 4 5 5 7 8 11 12 12 13 12 12 13 13 13 14 13 10 12 11 10 11 10 10 9 8 8 8 7 6 6 4 3 3 2 2 1 1 1 0 -0 -1
4 3 3 4 4 5 5 5 8 10 10 11 10 11 11 11 12 12 13 12 9 7 8 7 9 8 7 7 6 6 6 5 4 3 3 2 2 1 1 -1 -2 -3 -4 -4
2 2 3 2 2 3 5 5 6 7 7 8 8 9 10 10 9 9 10 8 9 7 6 5 5 4 5 5 4 4 4 3 3 3 2 1 -0 -2 -3 -3 -4 -4 -5 -5
1 0 1 2 2 2 4 3 5 5 5 7 6 6 5 4 4 2 1 2 2 3 2 3 3 3 1 2 2 2 1 0 -0 -2 -3 -4 -5 -5 -4 -5 -5 -6 -7 -8
-2 -0 1 2 -1 0 1 1 -0 0 1 1 2 1 -0 -1 -2 -2 -2 -2 1 -1 -2 -1 -1 -3 -2 -2 -1 -2 -3 -4 -4 -4 -5 -5 -5 -6 -6 -7 -8 -8 -9 -9
-3 -2 -1 -1 -3 -2 -2 -3 -3 -3 -3 -2 -4 -4 -3 -3 -4 -4 -4 -4 -4 -4 -5 -5 -5 -5 -4 -4 -4 -4 -5 -5 -5 -5 -6 -6 -7 -8 -8 -9 -9 -10 -10 -11
-5 -4 -4 -4 -4 -3 -3 -4 -5 -6 -6 -6 -5 -5 -5 -6 -7 -7 -7 -6 -6 -6 -6 -6 -6 -5 -5 -5 -5 -5 -6 -6 -7 -7 -8 -9 -9 -9 -10 -10 -11 -11 -12 -13
-7 -7 -6 -6 -6 -6 -7 -7 -7 -7 -7 -7 -6 -7 -7 -7 -8 -8 -8 -7 -8 -8 -9 -8 -7 -7 -7 -7 -7 -7 -8 -8 -9 -9 -10 -10 -10 -11 -12 -12 -13 -13 -14 -14
-9 -9 -8 -8 -8 -8 -8 -9 -9 -9 -9 -8 -8 -8 -8 -8 -8 -8 -8 -9 -10 -10 -9 -9 -8 -8 -9 -9 -8 -9 -9 -9 -10 -10 -11 -11 -12 -13 -14 -14 -15 -15 -16 -16
-10 -10 -10 -10 -10 -9 -9 -9 -9 -9 -9 -8 -8 -9 -10 -10 -10 -10 -10 -11 -12 -11 -10 -10 -10 -10 -10 -10 -10 -10 -11 -11 -12 -12 -13 -14 -15 -15 -16 -16 -17 -17 -18 -18
-10 -11 -11 -10 -10 -11 -11 -10 -9 -9 -10 -10 -10 -10 -10 -11 -11 -11 -12 -12 -13 -12 -11 -12 -12 -12 -12 -12 -12 -12 -13 -13 -14 -15 -15 -16 -16 -17 -17 -18 -18 -18 -19 -19
-11 -11 -11 -10 -11 -11 -10 -10 -10 -10 -11 -11 -11 -11 -11 -12 -12 -12 -13 -14 -13 -13 -13 -13 -14 -14 -14 -14 -14 -15 -15 -16 -16 -17 -17 -18 -18 -18 -18 -19 -19 -19 -20 -20
-11 -11 -11 -11 -10 -10 -10 -11 -11 -11 -12 -12 -12 -12 -12 -12 -13 -14 -15 -15 -15 -14 -14 -15 -16 -16 -16 -16 -17 -17 -17 -17 -18 -18 -18 -18 -19 -19 -19 -19 -19 -20 -20 -20
-10 -11 -10 -10 -10 -12 -12 -12 -12 -12 -12 -13 -13 -13 -14 -14 -14 -16 -16 -16 -16 -16 -16 -17 -17 -17 -17 -17 -17 -18 -18 -18 -18 -18 -19 -19 -19 -19 -19 -20 -20 -20 -20 -20
-11 -11 -11 -11 -12 -12 -12 -12 -12 -13 -13 -14 -15 -15 -16 -16 -17 -17 -17 -17 -17 -17 -17 -17 -17 -17 -18 -18 -18 -18 -18 -18 -19 -19 -19 -19 -20 -20 -20 -20 -20 -20 -20 -20
-12 -12 -12 -12 -13 -13 -13 -13 -14 -14 -15 -15 -15 -17 -17 -17 -18 -18 -18 -18 -18 -18 -18 -18 -18 -18 -18 -18 -19 -19 -19 -19 -19 -20 -20 -20 -20 -20 -20 -20 -20 -21 -21 -21

GFSNGP_850_temp_075.txt.gz
Temp
9 11 11 11 11 12 12 13 12 14 15 16 17 18 18 19 19 19 20 19 21 20 20 20 19 20 19 17 15 15 15 14 14 14 13 13 13 13 13 12 12 12 12 11
9 11 12 11 11 13 12 13 13 14 14 16 17 17 15 16 17 17 19 20 20 21 20 20 21 21 21 20 19 16 15 16 14 14 13 13 13 13 13 12 11 11 10 11
9 10 10 10 11 13 13 13 14 13 14 16 16 16 15 16 17 17 19 20 20 20 21 21 21 21 21 21 20 18 18 16 15 14 13 13 13 12 12 11 11 10 10 9
7 7 9 12 13 13 12 13 14 14 14 14 15 16 17 18 18 19 20 20 20 20 20 21 21 21 20 19 20 20 18 17 16 15 13 12 12 12 11 11 10 10 10 9
7 8 10 12 13 12 12 13 11 12 12 12 12 13 14 16 17 18 19 19 19 19 20 20 20 20 20 18 19 19 19 18 17 15 13 12 12 11 10 9 9 9 9 9
5 7 8 11 12 11 13 11 10 11 11 11 13 12 13 13 14 15 16 17 18 19 20 20 20 20 19 19 18 19 19 17 16 15 14 13 12 9 9 9 9 8 8 8
6 6 8 9 11 11 10 12 11 10 11 11 12 12 11 13 13 13 15 17 17 18 19 19 19 19 17 16 17 16 17 16 14 12 11 9 9 9 9 9 8 8 8 7
6 7 7 9 10 11 12 11 10 12 12 11 11 12 12 13 13 13 13 14 16 16 17 16 17 15 14 14 14 14 13 12 11 9 9 9 9 9 8 8 8 7 7 6
8 9 9 9 10 10 10 10 10 10 10 11 11 11 11 12 14 13 13 13 11 12 12 12 13 14 13 13 12 13 12 11 9 9 9 9 9 8 8 7 7 6 4 3
7 9 9 8 9 6 6 5 6 8 9 10 9 10 12 12 12 12 13 13 11 10 11 11 10 11 11 12 11 10 9 9 9 9 9 8 7 6 6 5 5 4 3 2
7 9 7 9 5 4 5 6 7 8 8 8 9 9 10 10 11 11 11 12 11 10 9 9 8 8 8 9 8 9 8 8 8 8 7 7 6 5 4 3 2 3 2 1
8 3 3 4 4 3 3 3 3 4 6 7 8 7 7 8 8 10 8 12 9 10 10 7 8 7 7 8 8 8 7 7 6 6 5 4 4 3 1 1 1 0 0 -0
3 2 3 3 3 3 3 2 2 3 4 5 6 7 5 6 5 6 7 8 8 7 8 8 7 7 5 5 6 6 6 6 5 4 3 2 1 1 1 -1 -1 -2 -3 -3
0 1 3 2 2 1 2 3 1 -0 3 0 0 3 3 3 3 3 3 2 2 3 2 3 5 5 4 3 4 5 5 5 3 3 2 1 -1 -2 -3 -3 -4 -5 -5 -5
-2 -2 -1 0 0 1 0 3 1 2 3 1 -0 -1 -2 2 0 -2 -2 -1 -0 0 -0 1 2 1 2 2 4 4 3 1 -1 -2 -2 -3 -4 -4 -4 -4 -5 -5 -6 -7
-3 -2 -1 -2 -2 -2 -2 -0 -2 -4 -2 -4 -5 -4 -5 -4 -4 -3 -3 -2 -0 -3 -4 -3 -3 -3 -3 -2 -2 -2 -3 -4 -3 -4 -5 -5 -5 -5 -6 -6 -7 -7 -8 -8
-5 -3 -4 -4 -4 -4 -5 -5 -5 -5 -5 -7 -8 -7 -6 -5 -5 -5 -5 -5 -5 -5 -6 -5 -5 -5 -4 -4 -4 -5 -5 -5 -5 -5 -5 -6 -6 -7 -7 -8 -8 -9 -9 -10
-7 -6 -6 -6 -6 -6 -7 -7 -7 -8 -7 -7 -7 -7 -7 -7 -8 -8 -8 -7 -6 -6 -6 -7 -6 -6 -6 -6 -6 -6 -6 -6 -7 -7 -7 -8 -8 -8 -9 -9 -10 -11 -12 -12
-8 -8 -8 -8 -8 -8 -8 -9 -9 -9 -9 -9 -8 -8 -9 -9 -9 -9 -8 -7 -8 -9 -9 -8 -7 -7 -7 -7 -7 -7 -7 -8 -8 -8 -9 -9 -10 -10 -11 -12 -12 -13 -14 -14
-10 -10 -10 -9 -9 -9 -10 -10 -10 -10 -10 -9 -9 -9 -10 -11 -10 -10 -9 -10 -11 -11 -10 -9 -8 -9 -9 -9 -9 -9 -9 -9 -10 -10 -11 -11 -12 -12 -13 -14 -14 -15 -15 -16
-11 -11 -11 -11 -11 -11 -11 -10 -10 -10 -11 -10 -9 -10 -11 -11 -11 -11 -11 -12 -13 -12 -11 -10 -10 -10 -10 -10 -10 -10 -11 -11 -12 -12 -13 -13 -14 -15 -15 -16 -16 -17 -17 -17
-11 -11 -11 -11 -11 -11 -11 -11 -10 -10 -10 -11 -11 -11 -11 -12 -12 -12 -13 -13 -14 -12 -12 -12 -12 -12 -12 -12 -12 -12 -12 -13 -14 -14 -15 -15 -16 -16 -17 -17 -17 -18 -18 -18
-11 -11 -11 -11 -11 -12 -11 -11 -11 -11 -11 -11 -11 -12 -12 -13 -13 -13 -13 -14 -14 -14 -13 -14 -15 -14 -14 -14 -14 -14 -15 -15 -16 -16 -16 -17 -17 -18 -18 -18 -18 -19 -19 -19
-11 -12 -12 -12 -11 -11 -11 -12 -12 -12 -12 -12 -13 -13 -13 -13 -14 -15 -16 -16 -16 -15 -15 -16 -16 -16 -16 -16 -16 -16 -16 -17 -17 -17 -18 -18 -18 -18 -19 -19 -19 -19 -19 -20
-11 -11 -11 -11 -11 -12 -12 -12 -12 -13 -13 -13 -14 -14 -14 -15 -14 -16 -16 -16 -17 -16 -16 -17 -17 -17 -17 -17 -17 -17 -17 -18 -18 -18 -18 -19 -19 -19 -19 -19 -19 -19 -20 -20
-11 -11 -12 -12 -12 -12 -12 -13 -13 -14 -14 -14 -15 -16 -16 -16 -17 -17 -17 -17 -17 -17 -17 -17 -17 -18 -18 -18 -18 -18 -18 -19 -19 -19 -19 -19 -19 -19 -20 -20 -20 -20 -20 -20
-12 -12 -12 -13 -13 -13 -13 -14 -14 -15 -15 -16 -15 -17 -17 -17 -17 -17 -18 -18 -18 -18 -18 -18 -18 -18 -18 -19 -19 -19 -19 -19 -19 -19 -20 -20 -20 -20 -20 -20 -20 -20 -20 -21

GFSNGP_850_temp_078.txt.gz
Temp
12 13 13 13 14 14 14 15 14 16 16 18 19 20 20 20 20 20 21 21 20 19 18 17 15 14 13 13 13 13 12 12 14 13 12 11 11 12 12 10 9 9 9 9
12 13 14 14 15 15 15 16 16 16 16 19 19 19 19 19 18 19 20 20 20 20 19 18 16 16 14 14 15 16 14 14 12 12 13 13 12 11 10 10 10 9 9 10
11 12 13 12 14 15 16 17 17 16 17 18 18 18 19 19 19 19 18 19 19 19 19 20 18 17 17 17 14 16 17 15 13 12 13 12 11 10 10 9 9 9 9 10
10 9 10 15 16 16 16 16 17 17 17 16 16 16 17 17 18 17 17 17 18 19 18 18 19 18 17 15 16 17 16 16 15 13 13 11 11 10 10 9 9 8 8 8
9 11 13 14 15 15 15 15 14 15 15 16 15 16 17 14 13 13 14 14 15 16 17 18 17 17 17 16 15 16 19 16 16 15 13 12 11 10 9 8 8 8 8 8
8 9 10 13 14 14 15 14 15 14 15 14 15 15 16 14 13 13 13 13 14 17 18 18 17 16 15 15 15 16 19 17 12 12 12 11 9 9 9 10 9 9 9 9
8 9 11 13 14 13 12 12 13 13 13 13 14 14 12 13 13 13 13 13 14 15 15 15 17 17 15 14 14 14 13 13 12 11 11 11 11 11 10 10 9 9 9 8
8 8 8 12 13 12 12 12 12 12 12 11 11 12 12 12 12 12 12 12 13 13 12 12 14 13 11 12 12 12 11 12 13 13 13 12 9 9 9 9 9 9 8 8
11 11 12 10 11 10 8 9 9 9 9 10 10 11 12 12 11 12 12 12 10 13 12 11 10 10 8 9 9 9 9 9 10 10 9 9 9 9 8 8 7 7 7 6
10 12 13 11 10 8 7 7 7 7 7 8 8 10 11 11 11 10 10 9 9 8 11 10 8 8 7 8 8 8 8 8 8 8 8 8 8 8 7 7 7 6 6 4
11 12 11 11 7 6 5 6 5 5 5 4 4 6 5 6 8 7 6 5 6 6 7 9 7 7 7 7 8 8 8 8 8 8 8 8 7 6 5 4 4 5 4 2
10 7 6 7 6 3 4 4 4 3 3 2 1 2 2 2 2 8 2 3 5 5 6 6 7 7 7 7 7 7 7 7 6 6 6 5 4 4 2 1 1 1 1 0
5 3 4 4 4 2 2 2 2 1 0 0 -0 -1 -1 -2 -0 8 -0 1 2 3 3 4 4 5 4 6 4 5 5 5 4 4 3 2 2 1 1 -2 -2 -2 -3 -3
-1 -0 3 1 0 0 0 -0 -1 -1 -1 -2 -3 -3 1 -2 -2 -0 1 -0 -1 1 2 2 2 2 4 3 4 3 3 3 3 2 1 1 -1 -2 -3 -3 -4 -5 -6 -5
-2 -2 -2 -1 -1 -1 -1 -1 -2 -3 -3 -1 -5 -5 -1 -4 -4 -4 -5 -3 -2 -2 -2 -1 -0 -0 -1 -1 1 0 1 -0 -1 -1 -2 -3 -4 -4 -4 -5 -6 -7 -8 -8
-4 -2 -2 -3 -3 -3 -3 -3 -4 -5 -5 -6 -6 -7 -5 -5 -5 -5 -5 -4 -3 -4 -5 -4 -4 -4 -3 -3 -2 -2 -3 -4 -3 -4 -5 -6 -6 -7 -7 -7 -8 -9 -9 -10
-5 -3 -4 -4 -4 -5 -6 -6 -7 -7 -7 -8 -8 -8 -8 -7 -7 -7 -7 -7 -6 -6 -6 -6 -6 -6 -5 -4 -4 -5 -5 -5 -6 -6 -6 -7 -7 -7 -8 -9 -9 -10 -10 -11
-7 -6 -7 -7 -6 -7 -8 -9 -9 -8 -9 -10 -10 -9 -9 -8 -9 -9 -9 -8 -7 -7 -7 -7 -7 -6 -6 -6 -6 -6 -6 -6 -6 -7 -7 -7 -8 -8 -9 -10 -11 -11 -12 -12
-8 -8 -9 -9 -9 -9 -10 -11 -10 -10 -10 -10 -10 -10 -10 -10 -10 -9 -9 -8 -8 -9 -10 -9 -8 -7 -8 -8 -7 -7 -8 -8 -8 -8 -9 -9 -10 -10 -11 -12 -13 -14 -15 -15
-10 -10 -10 -11 -11 -11 -12 -12 -12 -11 -11 -11 -11 -11 -11 -11 -10 -10 -9 -10 -11 -11 -10 -9 -9 -9 -9 -9 -8 -9 -9 -9 -10 -10 -11 -11 -12 -13 -14 -14 -16 -16 -17 -18
-11 -12 -12 -12 -12 -11 -11 -11 -11 -11 -11 -10 -10 -10 -11 -11 -11 -11 -11 -11 -12 -11 -11 -10 -10 -10 -10 -10 -10 -10 -10 -11 -11 -12 -12 -14 -14 -15 -16 -16 -17 -18 -19 -19
-12 -12 -12 -12 -12 -12 -12 -12 -11 -11 -11 -11 -12 -12 -12 -12 -12 -12 -12 -13 -13 -12 -12 -12 -12 -13 -12 -12 -12 -12 -13 -13 -13 -14 -14 -15 -16 -16 -17 -17 -18 -18 -20 -20
-12 -12 -12 -12 -12 -12 -12 -12 -12 -12 -12 -12 -12 -12 -13 -14 -15 -16 -14 -15 -14 -14 -13 -14 -15 -14 -14 -13 -14 -14 -14 -15 -15 -15 -16 -16 -17 -17 -17 -17 -18 -18 -18 -18
-12 -12 -12 -12 -12 -12 -12 -13 -13 -13 -13 -13 -13 -14 -15 -16 -16 -16 -16 -16 -16 -15 -15 -15 -15 -15 -15 -15 -15 -16 -16 -16 -17 -17 -17 -17 -17 -18 -18 -18 -18 -18 -18 -19
-12 -12 -12 -12 -13 -13 -13 -14 -14 -14 -14 -14 -15 -15 -15 -15 -15 -16 -16 -16 -16 -16 -16 -16 -17 -16 -16 -17 -17 -17 -17 -17 -18 -18 -18 -18 -18 -18 -18 -19 -19 -19 -19 -19
-12 -12 -12 -12 -13 -14 -14 -15 -16 -17 -16 -16 -16 -16 -16 -17 -17 -17 -17 -17 -17 -17 -17 -17 -17 -17 -17 -17 -18 -18 -18 -18 -18 -18 -18 -19 -19 -19 -19 -19 -19 -19 -20 -20
-12 -13 -13 -13 -13 -14 -15 -16 -17 -17 -18 -17 -17 -17 -17 -17 -17 -17 -17 -17 -17 -18 -18 -18 -18 -18 -18 -18 -18 -19 -19 -19 -19 -19 -19 -20 -20 -20 -20 -20 -20 -20 -20 -20

GFSNGP_850_temp_084.txt.gz
Temp
13 11 11 12 11 11 15 15 14 15 16 16 17 19 21 21 21 21 21 21 21 21 21 21 20 19 18 16 15 14 14 13 13 12 11 11 10 10 10 10 10 10 10 10
12 14 15 14 13 15 13 13 16 17 17 17 18 20 21 20 20 19 19 18 17 18 19 19 19 20 19 18 17 15 14 14 13 13 12 11 11 10 10 10 10 10 9 9
11 13 13 12 14 16 17 17 17 16 18 19 19 19 19 18 17 16 16 16 16 17 17 17 17 18 19 19 18 16 15 14 13 13 12 12 11 10 11 10 10 10 10 10
10 11 10 14 17 17 16 17 18 19 15 17 18 18 17 16 15 15 15 15 16 15 15 15 16 16 17 18 18 17 16 15 14 13 13 12 11 11 10 10 10 10 10 10
9 11 13 14 16 16 16 16 17 16 15 16 16 17 14 14 14 15 15 15 15 15 14 13 14 14 15 16 17 18 17 16 15 13 13 12 12 11 11 10 10 10 10 9
10 9 10 14 16 17 18 14 15 15 14 15 15 14 14 14 15 15 15 15 15 14 12 12 12 12 11 12 14 15 16 16 16 14 14 13 12 12 11 10 10 10 10 9
8 9 12 15 15 15 13 12 13 13 13 13 13 13 13 14 14 15 15 14 13 12 10 10 10 11 10 10 12 12 13 15 15 15 15 14 13 13 12 11 11 11 10 10
8 8 8 15 14 13 12 12 12 12 11 11 11 11 11 12 12 12 12 11 10 9 8 8 7 8 8 8 9 9 10 11 14 14 14 14 14 13 12 12 11 10 10 10
10 10 13 12 11 11 11 11 10 10 10 9 9 9 9 10 9 9 9 7 6 4 4 5 6 6 7 7 8 8 8 9 10 11 12 13 12 12 12 11 11 10 10 10
9 9 8 7 8 9 10 9 8 8 8 7 7 7 7 7 6 5 5 3 2 2 2 3 4 5 5 6 6 7 9 7 7 8 9 9 9 9 9 10 9 9 9 8
10 8 6 5 6 6 7 7 6 6 6 5 5 5 4 4 2 1 0 -1 -2 -1 1 2 3 4 5 4 4 4 7 7 5 4 4 5 6 6 5 4 4 6 6 2
6 6 5 4 4 4 5 5 4 4 4 3 2 2 2 2 -2 -3 -4 -4 -2 -1 -0 0 1 2 3 4 3 2 3 6 5 3 1 0 -0 -1 -1 -2 -1 -2 -1 -0
4 4 5 4 1 1 2 1 1 1 -1 -1 -2 -1 -1 -2 -3 -5 -5 -4 -4 -4 -3 -1 -1 -1 0 1 1 2 1 1 1 2 1 -0 0 -1 -3 -6 -5 -5 -6 -5
2 3 4 2 0 1 1 0 0 -1 -3 -3 -4 -4 -4 -4 -3 -4 -6 -6 -6 -5 -5 -4 -3 -1 -2 -2 -1 -1 -1 -0 -1 -2 -2 -4 -5 -5 -6 -7 -8 -8 -8 -8
0 2 1 1 1 0 -0 -1 -0 -2 -4 -5 -6 -7 -7 -7 -7 -7 -7 -7 -7 -7 -7 -6 -6 -5 -4 -4 -3 -3 -4 -4 -4 -5 -5 -6 -5 -7 -7 -8 -9 -9 -9 -9
-1 1 -1 -1 -1 -2 -3 -4 -4 -5 -6 -7 -8 -9 -10 -10 -9 -9 -8 -8 -7 -8 -9 -8 -8 -8 -6 -6 -5 -6 -6 -7 -7 -8 -8 -8 -8 -8 -9 -9 -10 -10 -10 -10
-2 -3 -4 -4 -4 -4 -6 -6 -7 -8 -8 -9 -9 -9 -10 -11 -11 -11 -10 -9 -9 -9 -9 -9 -9 -8 -7 -7 -6 -7 -7 -7 -7 -7 -8 -8 -8 -9 -9 -9 -10 -10 -11 -11
-5 -6 -7 -7 -6 -6 -7 -8 -9 -10 -10 -11 -11 -11 -11 -11 -12 -12 -11 -10 -9 -9 -10 -10 -10 -9 -8 -8 -8 -7 -7 -8 -8 -9 -9 -9 -10 -10 -10 -11 -11 -12 -12 -12
-8 -8 -8 -8 -8 -8 -9 -10 -11 -11 -12 -12 -11 -12 -12 -11 -11 -11 -11 -10 -10 -10 -11 -11 -10 -10 -10 -10 -9 -9 -9 -10 -10 -10 -11 -11 -11 -12 -12 -12 -13 -13 -14 -14
-10 -10 -11 -11 -10 -10 -11 -11 -12 -12 -13 -12 -12 -12 -13 -13 -13 -12 -12 -12 -13 -13 -12 -11 -10 -10 -11 -11 -10 -11 -11 -11 -11 -12 -13 -13 -14 -14 -15 -15 -16 -16 -16 -17
-11 -12 -12 -12 -12 -13 -13 -13 -12 -13 -13 -12 -12 -12 -13 -13 -12 -13 -13 -12 -14 -14 -13 -12 -11 -11 -11 -12 -11 -12 -13 -13 -14 -14 -15 -15 -15 -16 -16 -16 -17 -17 -17 -18
-12 -12 -13 -13 -13 -13 -13 -13 -13 -13 -13 -13 -13 -14 -14 -14 -14 -13 -14 -15 -15 -13 -13 -13 -13 -14 -15 -14 -14 -14 -15 -16 -16 -17 -17 -17 -18 -18 -18 -18 -18 -19 -19 -19
-12 -13 -13 -13 -13 -13 -13 -13 -13 -13 -13 -13 -14 -14 -14 -14 -14 -14 -14 -15 -14 -14 -14 -14 -14 -15 -15 -16 -17 -17 -17 -17 -17 -18 -18 -18 -19 -19 -19 -19 -20 -19 -19 -20
-12 -13 -13 -13 -13 -13 -13 -13 -13 -13 -13 -14 -14 -14 -16 -16 -16 -16 -18 -17 -16 -16 -15 -16 -16 -16 -16 -16 -16 -16 -17 -18 -18 -19 -19 -19 -20 -20 -19 -19 -19 -19 -19 -19
-12 -12 -12 -12 -13 -14 -13 -14 -15 -15 -16 -16 -16 -16 -15 -15 -16 -17 -18 -18 -18 -17 -16 -16 -16 -16 -16 -16 -17 -18 -17 -17 -18 -19 -19 -19 -19 -19 -18 -18 -18 -19 -19 -19
-12 -13 -13 -13 -13 -13 -13 -14 -14 -15 -16 -17 -18 -18 -18 -18 -19 -19 -18 -18 -17 -18 -17 -17 -17 -17 -18 -18 -18 -19 -18 -18 -18 -18 -19 -19 -20 -19 -18 -19 -19 -19 -19 -19
-12 -13 -13 -14 -14 -14 -14 -14 -15 -16 -16 -17 -18 -18 -18 -18 -19 -19 -19 -19 -19 -20 -20 -19 -18 -18 -18 -19 -19 -19 -20 -20 -19 -19 -19 -19 -19 -19 -19 -19 -19 -19 -19 -19